When you browse on this site, cookies collect data to enhance your experience and personalize the content and advertising you see.
Visit our Privacy Policy to learn more. By continuing to use the site, you agree to this use of cookies and data.
  • En España
  • Lista de países
  • Para 7 días
  • Temperatura del agua
  • El tiempo en el mapa
  • Informadores
  • user-avatar
    Iniciar sesión

    Tiempo cada hora Kingston upon Thames

    Hoy, 21 Septiembre, Sábado

    Tiempo Temperatura Precipitaciones Viento Presión Humedad
    00:00 +14°C° 0 mm 4 mps 761 mmHg 59%
    01:00 +14°C° 0 mm 4 mps 761 mmHg 61%
    02:00 +13°C° 0 mm 4 mps 760 mmHg 63%
    03:00 +13°C° 0 mm 4 mps 760 mmHg 65%
    04:00 +13°C° 0 mm 4 mps 759 mmHg 66%
    05:00 +12°C° 0 mm 4 mps 759 mmHg 68%
    06:00 +12°C° 0 mm 4 mps 759 mmHg 70%
    07:00 +13°C° 0 mm 4 mps 758 mmHg 66%
    08:00 +15°C° 0 mm 5 mps 758 mmHg 62%
    09:00 +16°C° 0 mm 5 mps 758 mmHg 57%
    10:00 +19°C° 0 mm 5 mps 758 mmHg 54%
    11:00 +21°C° 0 mm 5 mps 757 mmHg 51%
    12:00 +22°C° 0 mm 5 mps 757 mmHg 48%
    13:00 +23°C° 0 mm 5 mps 756 mmHg 48%
    14:00 +23°C° 0 mm 5 mps 756 mmHg 49%
    15:00 +25°C° 0 mm 5 mps 755 mmHg 50%
    16:00 +22°C° 0 mm 4 mps 755 mmHg 55%
    17:00 +21°C° 0 mm 4 mps 754 mmHg 59%
    18:00 +20°C° 0 mm 4 mps 754 mmHg 63%
    19:00 +20°C° 0 mm 4 mps 754 mmHg 64%
    20:00 +20°C° 0 mm 4 mps 754 mmHg 66%
    21:00 +20°C° 0 mm 4 mps 753 mmHg 67%
    22:00 +20°C° 0.2 mm 4 mps 753 mmHg 70%
    23:00 +19°C° 0.2 mm 4 mps 753 mmHg 72%

    Mañana, 22 Septiembre, Domingo

    Tiempo Temperatura Precipitaciones Viento Presión Humedad
    00:00 +19°C° 0.2 mm 3 mps 752 mmHg 74%
    01:00 +19°C° 0.1 mm 3 mps 752 mmHg 76%
    02:00 +19°C° 0.1 mm 3 mps 751 mmHg 78%
    03:00 +19°C° 0.1 mm 3 mps 751 mmHg 80%
    04:00 +18°C° 0.1 mm 3 mps 751 mmHg 82%
    05:00 +18°C° 0.1 mm 3 mps 751 mmHg 83%
    06:00 +18°C° 0.1 mm 3 mps 750 mmHg 85%
    07:00 +19°C° 0.1 mm 4 mps 750 mmHg 84%
    08:00 +19°C° 0.1 mm 4 mps 750 mmHg 84%
    09:00 +20°C° 0.1 mm 5 mps 750 mmHg 83%
    10:00 +19°C° 0.4 mm 4 mps 751 mmHg 83%
    11:00 +18°C° 0.4 mm 4 mps 751 mmHg 83%
    12:00 +17°C° 0.4 mm 4 mps 751 mmHg 84%
    13:00 +18°C° 0.2 mm 4 mps 751 mmHg 79%
    14:00 +17°C° 0.2 mm 5 mps 751 mmHg 75%
    15:00 +19°C° 0.2 mm 6 mps 751 mmHg 71%
    16:00 +19°C° 0 mm 5 mps 751 mmHg 73%
    17:00 +17°C° 0 mm 5 mps 751 mmHg 76%
    18:00 +17°C° 0 mm 4 mps 751 mmHg 78%
    19:00 +17°C° 0 mm 4 mps 752 mmHg 81%
    20:00 +15°C° 0 mm 4 mps 752 mmHg 83%
    21:00 +16°C° 0 mm 3 mps 752 mmHg 86%
    22:00 +14°C° 0 mm 4 mps 753 mmHg 87%
    23:00 +14°C° 0 mm 4 mps 753 mmHg 88%

    Pasado mañana, 23 Septiembre, Lunes

    Tiempo Temperatura Precipitaciones Viento Presión Humedad
    00:00 +14°C° 0 mm 5 mps 754 mmHg 89%
    01:00 +13°C° 0 mm 5 mps 754 mmHg 88%
    02:00 +13°C° 0 mm 5 mps 754 mmHg 87%
    03:00 +12°C° 0 mm 5 mps 755 mmHg 86%
    04:00 +12°C° 0 mm 4 mps 755 mmHg 86%
    05:00 +12°C° 0 mm 4 mps 755 mmHg 86%
    06:00 +11°C° 0 mm 3 mps 756 mmHg 87%
    07:00 +13°C° 0 mm 3 mps 756 mmHg 82%
    08:00 +14°C° 0 mm 4 mps 756 mmHg 77%
    09:00 +17°C° 0 mm 4 mps 757 mmHg 73%
    10:00 +17°C° 0.1 mm 5 mps 757 mmHg 70%
    11:00 +19°C° 0.1 mm 5 mps 757 mmHg 66%
    12:00 +20°C° 0.1 mm 6 mps 757 mmHg 63%
    13:00 +19°C° 0.1 mm 6 mps 756 mmHg 64%
    14:00 +19°C° 0.1 mm 6 mps 756 mmHg 65%
    15:00 +17°C° 0.1 mm 6 mps 756 mmHg 67%
    16:00 +17°C° 0.2 mm 5 mps 755 mmHg 71%
    17:00 +16°C° 0.2 mm 5 mps 755 mmHg 75%
    18:00 +15°C° 0.2 mm 5 mps 755 mmHg 79%
    19:00 +16°C° 0.5 mm 5 mps 754 mmHg 82%
    20:00 +16°C° 0.5 mm 6 mps 754 mmHg 85%
    21:00 +16°C° 0.5 mm 7 mps 754 mmHg 89%
    22:00 +16°C° 1.7 mm 7 mps 753 mmHg 89%
    23:00 +16°C° 1.7 mm 6 mps 753 mmHg 90%

    24 Septiembre, Martes

    Tiempo Temperatura Precipitaciones Viento Presión Humedad
    00:00 +16°C° 1.7 mm 6 mps 752 mmHg 90%
    01:00 +16°C° 1.3 mm 6 mps 751 mmHg 91%
    02:00 +16°C° 1.3 mm 6 mps 751 mmHg 92%
    03:00 +16°C° 1.3 mm 6 mps 750 mmHg 93%
    04:00 +16°C° 0.7 mm 6 mps 749 mmHg 93%
    05:00 +16°C° 0.7 mm 7 mps 748 mmHg 92%
    06:00 +16°C° 0.7 mm 7 mps 748 mmHg 92%
    07:00 +16°C° 2.7 mm 6 mps 747 mmHg 92%
    08:00 +16°C° 2.7 mm 6 mps 747 mmHg 92%
    09:00 +16°C° 2.7 mm 6 mps 746 mmHg 92%
    10:00 +17°C° 2 mm 6 mps 746 mmHg 86%
    11:00 +18°C° 2 mm 7 mps 746 mmHg 79%
    12:00 +20°C° 2 mm 7 mps 746 mmHg 72%
    13:00 +20°C° 0.4 mm 7 mps 746 mmHg 71%
    14:00 +20°C° 0.4 mm 7 mps 747 mmHg 69%
    15:00 +20°C° 0.4 mm 7 mps 747 mmHg 68%
    16:00 +18°C° 0.1 mm 7 mps 747 mmHg 72%
    17:00 +17°C° 0.1 mm 7 mps 747 mmHg 77%
    18:00 +16°C° 0.1 mm 6 mps 747 mmHg 82%
    19:00 +16°C° 0.2 mm 6 mps 748 mmHg 83%
    20:00 +15°C° 0.2 mm 6 mps 748 mmHg 84%
    21:00 +15°C° 0.2 mm 6 mps 748 mmHg 85%
    22:00 +15°C° 0 mm 5 mps 748 mmHg 84%
    23:00 +15°C° 0 mm 5 mps 747 mmHg 83%

    25 Septiembre, Miércoles

    Tiempo Temperatura Precipitaciones Viento Presión Humedad
    00:00 +14°C° 0 mm 5 mps 747 mmHg 83%
    01:00 +15°C° 0.3 mm 6 mps 746 mmHg 84%
    02:00 +15°C° 0.3 mm 7 mps 745 mmHg 85%
    03:00 +15°C° 0.3 mm 7 mps 745 mmHg 87%
    04:00 +15°C° 1.1 mm 7 mps 744 mmHg 87%
    05:00 +15°C° 1.1 mm 7 mps 744 mmHg 88%
    06:00 +15°C° 1.1 mm 6 mps 743 mmHg 88%
    07:00 +15°C° 1.3 mm 7 mps 744 mmHg 88%
    08:00 +15°C° 1.3 mm 7 mps 744 mmHg 87%
    09:00 +15°C° 1.3 mm 8 mps 744 mmHg 87%
    10:00 +16°C° 0.2 mm 7 mps 744 mmHg 84%
    11:00 +16°C° 0.2 mm 7 mps 745 mmHg 81%
    12:00 +17°C° 0.2 mm 7 mps 746 mmHg 78%
    13:00 +17°C° 0.1 mm 7 mps 746 mmHg 75%
    14:00 +18°C° 0.1 mm 7 mps 746 mmHg 73%
    15:00 +18°C° 0.1 mm 7 mps 746 mmHg 70%
    16:00 +17°C° 0 mm 6 mps 747 mmHg 74%
    17:00 +16°C° 0 mm 5 mps 747 mmHg 77%
    18:00 +15°C° 0 mm 4 mps 747 mmHg 81%
    19:00 +16°C° 0 mm 3 mps 747 mmHg 83%
    20:00 +14°C° 0 mm 3 mps 748 mmHg 85%
    21:00 +15°C° 0 mm 2 mps 748 mmHg 88%
    22:00 +13°C° 0 mm 3 mps 748 mmHg 89%
    23:00 +13°C° 0 mm 3 mps 748 mmHg 89%

    26 Septiembre, Jueves

    Tiempo Temperatura Precipitaciones Viento Presión Humedad
    00:00 +13°C° 0 mm 3 mps 748 mmHg 90%
    01:00 +13°C° 0 mm 3 mps 749 mmHg 91%
    02:00 +13°C° 0 mm 3 mps 749 mmHg 92%
    03:00 +13°C° 0 mm 3 mps 749 mmHg 93%
    04:00 +13°C° 0.1 mm 4 mps 750 mmHg 90%
    05:00 +13°C° 0.1 mm 4 mps 750 mmHg 87%
    06:00 +13°C° 0.1 mm 5 mps 750 mmHg 85%
    07:00 +13°C° 0 mm 5 mps 751 mmHg 79%
    08:00 +14°C° 0 mm 5 mps 751 mmHg 73%
    09:00 +15°C° 0 mm 5 mps 752 mmHg 66%
    10:00 +15°C° 0 mm 5 mps 752 mmHg 69%
    11:00 +16°C° 0 mm 5 mps 752 mmHg 72%
    12:00 +17°C° 0 mm 4 mps 753 mmHg 75%
    13:00 +17°C° 0.4 mm 4 mps 752 mmHg 76%
    14:00 +17°C° 0.4 mm 4 mps 752 mmHg 76%
    15:00 +17°C° 0.4 mm 4 mps 752 mmHg 77%
    16:00 +15°C° 0 mm 4 mps 753 mmHg 76%
    17:00 +14°C° 0 mm 4 mps 753 mmHg 75%
    18:00 +14°C° 0 mm 4 mps 754 mmHg 73%
    19:00 +13°C° 0 mm 4 mps 754 mmHg 74%
    20:00 +12°C° 0 mm 4 mps 755 mmHg 75%
    21:00 +12°C° 0 mm 4 mps 756 mmHg 77%
    22:00 +11°C° 0 mm 3 mps 756 mmHg 78%
    23:00 +11°C° 0 mm 3 mps 756 mmHg 80%
    Mostrar más